Weather History for West Palm Beach, FL

Change the Weather History Date:

Thursday, November 1, 2012

  Actual Average Record
Temperature  
Mean Temperature 69 °F 75 °F  
Max Temperature 81 °F 82 °F 90 °F (1900)
Min Temperature 56 °F 68 °F 45 °F (1993)
Degree Days  
Heating Degree Days 0 0  
Month to date heating degree days 0 0  
Since 1 July heating degree days 5 1  
Cooling Degree Days 4 10  
Month to date cooling degree days 4 10  
Year to date cooling degree days 3855 3631  
Growing Degree Days 18 (Base 50)    
Moisture  
Dew Point 57 °F    
Average Humidity 68    
Maximum Humidity 93    
Minimum Humidity 42    
Precipitation  
Precipitation 0.00 in 0.17 in 5.89 in (1982)
Month to date precipitation 0.00 0.17  
Year to date precipitation 76.85 54.37  
Snow  
Snow 0.00 in - - ()
Month to date snowfall 0.0  
Since 1 July snowfall 0.0  
Since 1 September snowfall 0.0  
Snow Depth 0.00 in    
Sea Level Pressure  
Sea Level Pressure 30.02 in    
Wind  
Wind Speed 6 mph (WSW)    
Max Wind Speed 20 mph    
Max Gust Speed 24 mph    
Visibility 10 miles    
Events      
T = Trace of Precipitation, MM = Missing Value Source: NWS Daily Summary

Daily Weather History Graph

Daily Weather History Graph

Search for Another Location

Airport:

Trip Planner

Search our weather history database for the weather conditions in past years. The results will help you decide how hot, cold, wet, or windy it might be!

Date:

Astronomy

Nov. 01, 2012 Rise Set
Actual Time 7:30 AM EDT 6:37 PM EDT
Civil Twilight 7:06 AM EDT 7:01 PM EDT
Nautical Twilight 6:38 AM EDT 7:28 PM EDT
Astronomical Twilight 6:11 AM EDT 7:55 PM EDT
Moon 8:44 PM EDT (11/1) 9:50 AM EDT (11/1)
Length of Visible Light 11h 54m
Length of Day
11h 07m
Waning Gibbous, 93% of the Moon is Illuminated
Nov 1
Waning Gibbous
Nov 6
Last Quarter
Nov 13
New
Nov 20
First Quarter
Nov 28
Full

Hourly Weather History & Observations

Time (EDT) Temp. Heat Index Dew Point Humidity Pressure Visibility Wind Dir Wind Speed Gust Speed Precip Events Conditions
12:53 AM 60.1 °F - 54.0 °F 80% 30.04 in 10.0 mi West 4.6 mph - N/A   Clear
1:53 AM 57.9 °F - 54.0 °F 87% 30.04 in 10.0 mi Calm Calm - N/A   Clear
2:53 AM 59.0 °F - 55.0 °F 87% 30.03 in 10.0 mi Calm Calm - N/A   Clear
3:53 AM 57.0 °F - 54.0 °F 89% 30.02 in 10.0 mi WNW 3.5 mph - N/A   Clear
4:53 AM 57.0 °F - 54.0 °F 89% 30.02 in 10.0 mi Calm Calm - N/A   Clear
5:53 AM 57.0 °F - 53.1 °F 87% 30.03 in 10.0 mi Calm Calm - N/A   Clear
6:53 AM 57.9 °F - 54.0 °F 87% 30.04 in 10.0 mi Calm Calm - N/A   Partly Cloudy
7:53 AM 57.9 °F - 55.0 °F 90% 30.04 in 10.0 mi SSW 3.5 mph - N/A   Partly Cloudy
8:53 AM 63.0 °F - 57.9 °F 84% 30.06 in 10.0 mi SSW 5.8 mph - N/A   Partly Cloudy
9:53 AM 68.0 °F - 59.0 °F 73% 30.06 in 10.0 mi SW 6.9 mph - N/A   Partly Cloudy
10:53 AM 72.0 °F - 61.0 °F 68% 30.06 in 10.0 mi SW 9.2 mph - N/A   Partly Cloudy
11:53 AM 75.0 °F - 61.0 °F 62% 30.06 in 10.0 mi West 9.2 mph - N/A   Scattered Clouds
12:53 PM 77.0 °F - 60.1 °F 56% 30.03 in 10.0 mi West 10.4 mph 18.4 mph N/A   Mostly Cloudy
1:53 PM 79.0 °F - 55.0 °F 44% 29.99 in 10.0 mi West 12.7 mph 19.6 mph N/A   Scattered Clouds
2:53 PM 80.1 °F 80.1 °F 55.0 °F 42% 29.97 in 10.0 mi West 10.4 mph 20.7 mph N/A   Scattered Clouds
3:53 PM 79.0 °F - 57.0 °F 47% 29.96 in 10.0 mi West 10.4 mph - N/A   Scattered Clouds
4:53 PM 79.0 °F - 57.9 °F 48% 29.96 in 10.0 mi WSW 15.0 mph - N/A   Mostly Cloudy
5:53 PM 77.0 °F - 57.9 °F 52% 29.96 in 10.0 mi West 11.5 mph - N/A   Scattered Clouds
6:53 PM 73.0 °F - 60.1 °F 64% 29.97 in 10.0 mi West 4.6 mph - N/A   Scattered Clouds
7:53 PM 73.0 °F - 60.1 °F 64% 29.99 in 10.0 mi West 3.5 mph - N/A   Scattered Clouds
8:53 PM 72.0 °F - 60.1 °F 66% 30.00 in 10.0 mi West 8.1 mph - N/A   Partly Cloudy
9:53 PM 70.0 °F - 60.1 °F 71% 30.02 in 10.0 mi West 6.9 mph - N/A   Partly Cloudy
10:53 PM 69.1 °F - 60.1 °F 73% 30.03 in 10.0 mi West 5.8 mph - N/A   Clear
11:53 PM 66.9 °F - 60.1 °F 79% 30.02 in 10.0 mi WSW 5.8 mph - N/A   Clear